Location: Altavilla Irpina
(41.0000°N, 14.7833°E)
Time: 16:41:02
(UTC+00:00)

Cosmos 2360 Rocket - Pass Details

Date: 19 May 2025
Orbit: 834 x 842 km, 71.0° (Epoch: 16 June)

Event Time Altitude Azimuth Distance (km) Brightness Sun altitude
Rises 21:28:27 0° 349° (N) 3,391 6.6 -25.6°
Reaches altitude 10° 21:31:57 10° 11° (N) 2,452 5.3 -25.9°
Maximum altitude 21:35:19 16° 48° (NE) 2,059 4.4 -26.1°
Enters shadow 21:37:51 12° 78° (ENE) 2,290 4.4 -26.3°
